Theta_e
328 329 329 329 329 329 329 330 330 331 331 331 331 331 331 331 331 331 331 330 330 330 329 329 328 327 327 328 328 327 327 326 325 323 324 325 326 327 327 327 329 330
326 328 328 328 329 329 329 330 330 330 330 330 331 331 331 331 332 332 331 330 330 330 331 330 328 328 328 327 327 327 327 327 326 324 323 323 325 326 326 326 329 330
325 326 327 328 328 328 329 330 330 330 330 330 330 331 331 331 331 332 331 330 330 331 331 330 328 327 327 327 327 326 326 326 326 325 325 326 327 327 325 325 327 328
324 325 326 327 328 328 328 329 330 330 330 330 330 331 332 331 331 331 330 330 330 330 331 330 328 327 327 327 327 326 326 326 326 327 327 328 328 326 324 325 326 327
323 324 325 325 327 328 328 329 329 330 330 330 330 331 332 331 330 330 330 330 330 330 331 330 328 327 326 327 327 326 326 326 327 328 329 328 327 326 325 325 327 328
323 324 324 325 326 327 328 329 329 329 329 329 329 330 331 330 329 330 329 329 329 329 331 330 329 327 326 327 327 326 326 326 326 329 329 329 328 327 326 327 328 330
323 323 324 325 326 326 327 328 328 328 328 329 329 330 331 330 329 329 329 329 329 329 330 330 328 328 327 326 325 325 326 327 327 329 329 329 329 328 328 329 330 330
323 323 323 324 326 326 327 327 328 327 328 328 329 329 330 330 329 329 329 329 329 329 330 330 329 329 327 325 324 325 326 327 328 329 329 329 328 328 328 329 329 330
322 323 324 324 325 326 326 326 327 328 328 328 329 329 330 330 329 329 329 329 329 329 328 329 330 329 327 325 325 326 327 328 329 329 329 329 328 328 328 328 329 330
321 323 324 325 326 326 325 325 326 327 328 328 329 329 329 329 329 329 328 329 329 329 328 329 330 329 327 326 326 327 328 328 328 328 328 328 328 328 329 329 329 329
319 321 323 325 326 326 325 325 326 327 327 327 328 328 328 329 329 328 328 328 328 328 327 328 330 328 326 327 327 327 328 327 327 328 327 328 328 328 328 329 330 329
317 319 321 324 325 325 326 326 326 326 326 326 326 326 327 329 329 328 328 328 327 327 326 328 330 329 327 328 328 327 327 327 326 326 326 327 328 328 328 329 330 329
316 317 319 321 323 324 325 325 325 326 326 326 326 326 327 328 328 328 327 327 327 328 328 329 330 330 329 328 327 327 326 325 325 325 325 326 327 327 327 327 328 329
313 315 317 319 321 322 324 324 325 325 325 325 326 326 327 328 328 327 327 327 328 327 325 326 327 329 330 328 326 325 324 323 323 324 324 325 326 327 326 326 327 327
310 312 314 317 319 321 322 324 324 325 325 325 325 326 327 327 327 327 327 327 328 326 323 324 326 329 329 327 325 324 322 321 322 323 325 326 326 326 326 326 326 326
309 310 311 314 318 320 321 322 324 325 324 324 325 325 326 326 325 326 326 327 328 327 325 326 327 328 328 326 325 324 322 321 320 321 325 326 326 326 326 325 325 324
308 309 309 310 314 317 319 321 322 324 324 325 325 324 325 326 325 324 325 326 327 327 327 327 327 327 327 326 325 324 323 323 322 320 322 324 324 325 325 325 324 323
308 308 308 308 310 314 317 318 320 321 323 324 325 325 325 326 325 323 323 325 326 326 326 327 327 326 326 326 326 325 324 324 324 323 322 321 321 322 323 323 323 323
307 307 308 307 308 309 312 314 316 318 320 322 323 324 324 325 325 325 325 325 325 325 325 326 326 326 327 327 327 326 324 323 325 326 325 323 322 322 323 323 323 323
307 307 307 307 307 307 308 310 312 314 316 318 319 321 322 324 324 325 325 325 325 325 325 325 325 325 326 327 326 326 325 324 324 326 326 325 325 324 324 324 323 323
306 306 306 306 306 306 307 308 309 310 311 313 315 316 318 320 321 322 323 324 324 325 325 325 325 325 326 326 326 325 325 324 323 323 325 325 326 326 326 325 325 325
305 305 306 306 306 306 306 306 307 307 308 309 310 311 312 315 317 318 319 321 322 323 324 324 324 324 325 325 325 325 324 324 323 323 322 323 325 327 327 327 327 327
304 304 305 305 305 305 305 305 305 305 306 307 307 308 309 310 311 313 315 316 318 319 321 322 322 323 324 325 325 325 324 324 324 323 323 322 324 325 326 326 326 326
303 303 304 304 304 304 304 304 305 304 305 305 305 306 307 307 308 309 310 311 312 314 316 318 319 321 323 324 324 324 324 323 323 324 323 323 323 324 324 324 324 323
302 302 303 303 303 304 304 304 304 304 304 304 304 304 305 306 307 307 307 308 309 310 312 313 315 318 320 322 323 324 323 323 323 323 323 323 323 323 323 323 323 323
302 302 302 302 303 303 303 303 303 303 303 304 304 304 304 305 306 306 306 307 307 308 309 310 312 313 316 318 321 322 322 322 322 322 323 323 322 321 322 322 322 322
Wind_Speed
8 8 9 11 12 15 16 15 14 13 12 12 12 12 12 13 14 14 15 16 14 16 19 18 18 19 18 17 16 16 18 19 19 20 19 17 17 18 20 20 18 17
7 7 9 10 12 14 14 15 15 15 14 13 13 13 13 14 14 14 15 16 15 17 20 19 18 19 19 18 17 16 17 18 18 19 20 20 20 19 19 20 18 19
7 8 9 10 11 13 13 13 14 15 15 15 14 14 14 14 14 14 15 15 16 19 21 21 20 19 19 18 17 17 17 17 18 19 20 20 20 19 19 19 18 19
7 8 9 9 11 12 13 13 13 14 15 15 15 14 14 15 14 14 15 16 17 19 21 22 21 19 19 18 17 17 17 17 17 17 18 19 19 19 19 18 18 18
10 9 10 10 11 12 13 13 13 14 15 14 14 13 14 15 14 14 15 16 18 20 20 22 22 20 19 19 18 17 16 16 16 16 18 19 19 19 19 18 18 17
13 12 11 12 12 12 13 14 14 13 14 15 14 14 15 15 15 15 15 16 19 22 22 22 23 20 19 19 18 16 15 15 16 17 18 19 19 19 18 17 17 17
15 13 13 13 13 13 13 14 15 14 15 15 15 15 16 16 16 16 16 17 20 22 22 23 23 21 20 20 18 16 15 16 16 18 18 18 19 18 17 17 16 16
14 14 14 13 14 14 13 13 14 14 15 16 16 16 17 18 18 18 18 19 20 22 23 23 22 21 21 20 18 16 16 16 17 18 18 18 18 17 17 17 17 17
13 13 14 14 14 15 14 13 14 14 15 16 17 17 18 19 19 19 20 20 20 21 22 21 20 21 20 18 17 16 16 17 17 17 17 17 16 16 17 17 17 18
12 12 13 14 14 15 15 14 13 15 17 16 17 18 17 17 18 19 20 19 19 20 20 18 19 20 19 18 17 16 16 17 17 16 16 16 16 16 16 16 17 18
12 12 12 13 14 14 15 15 13 15 18 18 20 20 16 14 16 18 19 19 19 20 19 18 19 19 18 16 16 16 16 16 16 16 16 16 16 16 16 16 16 18
13 12 12 12 13 13 14 14 12 14 17 18 20 19 15 14 14 16 18 18 18 19 19 19 18 18 16 15 16 16 16 16 16 16 16 16 16 16 16 16 16 17
16 13 11 11 12 12 13 12 10 11 13 14 15 13 13 13 12 15 18 17 17 18 18 18 17 16 15 15 16 16 16 16 16 16 16 16 16 16 16 17 16 17
18 16 13 12 12 12 12 11 8 9 9 10 11 8 9 10 9 11 14 14 14 14 14 15 15 15 15 16 17 17 16 16 15 16 16 16 16 16 16 16 17 18
18 17 15 13 12 11 10 9 7 7 6 6 8 8 7 8 8 8 10 10 10 10 12 15 15 15 15 16 16 16 16 16 16 16 16 16 17 17 17 17 17 18
18 18 17 15 13 11 10 10 8 6 6 4 4 7 9 10 11 10 8 8 9 9 12 15 15 14 14 15 15 15 15 15 16 17 16 16 16 16 17 18 18 18
18 18 18 17 16 14 11 10 9 7 7 5 3 5 8 11 12 11 10 9 9 10 12 13 13 13 13 13 14 14 14 14 16 17 17 16 16 16 16 17 17 17
19 18 19 19 18 17 15 12 10 8 7 7 5 4 7 9 11 12 13 13 10 10 11 12 13 12 11 11 13 14 14 14 14 14 16 17 17 16 16 16 16 17
19 19 19 20 20 20 19 17 14 10 8 6 5 5 5 7 9 12 14 15 14 12 12 13 13 12 10 10 12 14 15 15 14 13 14 15 16 16 16 15 16 16
19 20 20 20 21 21 23 23 19 16 13 10 7 6 6 6 8 10 11 13 15 15 14 14 13 11 11 11 12 14 15 16 15 14 14 15 15 15 16 16 16 16
20 20 20 20 21 21 24 26 25 23 19 16 13 10 8 6 7 8 9 11 13 14 14 13 12 11 12 13 14 15 16 16 15 15 15 15 15 15 15 15 14 14
20 20 20 20 21 22 24 27 28 28 26 24 21 18 14 11 8 8 8 10 11 12 13 14 13 13 14 14 15 16 17 17 17 16 16 16 17 16 15 14 14 13
21 21 20 20 21 21 23 25 27 28 29 28 27 26 23 19 15 12 10 9 9 10 12 15 16 16 16 16 17 17 18 19 19 17 17 17 17 16 16 16 16 16
21 21 20 21 21 21 21 22 23 23 25 25 26 26 26 25 23 20 17 14 12 9 9 13 15 16 17 18 18 19 19 20 20 17 17 19 18 18 19 19 18 18
21 21 21 21 21 20 19 20 20 20 20 21 21 21 22 24 24 22 21 19 17 14 11 11 11 13 16 18 19 20 21 23 21 18 18 21 22 22 23 22 20 19
22 20 21 22 21 20 19 18 18 18 18 18 18 18 18 21 22 23 23 21 20 18 15 12 11 10 12 15 18 21 22 24 24 22 22 24 23 23 25 25 23 23
Wind_Direction
301 294 286 282 280 276 273 269 263 260 254 245 247 250 247 246 244 239 238 235 226 218 215 211 213 217 216 213 212 211 211 217 221 220 223 231 237 238 239 241 240 238
308 308 298 292 289 286 283 277 270 266 257 246 246 250 246 241 237 236 236 233 226 217 211 208 212 217 218 216 217 217 217 220 223 223 227 233 237 238 238 239 238 238
314 313 304 297 292 289 287 280 274 273 264 251 244 242 244 242 234 232 232 227 222 216 210 209 212 215 216 216 217 220 220 221 223 228 231 231 231 235 239 239 239 240
315 307 303 300 296 292 291 284 277 274 268 260 249 237 239 244 236 232 230 224 221 217 211 212 213 212 213 215 219 222 221 223 226 231 233 231 233 239 242 240 241 244
316 309 305 305 303 298 294 288 279 272 266 262 253 235 234 241 238 233 229 223 221 217 212 212 212 212 212 214 219 221 224 229 231 231 232 235 239 242 241 238 238 240
315 312 306 305 303 298 295 290 283 274 265 260 253 239 234 237 236 232 228 223 219 213 209 210 211 212 214 214 216 219 225 232 233 230 231 234 236 238 239 236 233 234
320 318 311 305 297 291 293 292 287 280 271 261 251 240 236 235 234 230 226 223 218 211 207 209 210 210 213 213 215 219 224 229 230 228 227 230 231 233 236 234 229 231
322 321 316 309 303 296 290 287 287 285 275 263 250 240 235 234 231 227 223 220 216 211 208 207 208 209 213 215 217 220 224 226 226 226 225 227 229 230 233 232 228 229
318 317 313 310 310 307 294 283 284 284 275 264 254 245 237 233 231 227 222 219 214 212 210 207 205 208 213 217 219 220 222 224 225 225 226 226 226 228 230 230 228 227
310 308 306 304 307 311 303 287 279 278 274 262 252 246 236 231 234 231 223 217 212 211 209 205 206 211 215 217 218 220 222 225 226 225 226 226 226 227 228 228 229 228
320 308 304 302 301 306 306 294 282 278 275 267 258 251 235 227 236 234 225 217 212 211 208 206 210 215 218 218 218 221 223 223 224 225 226 227 226 225 225 224 227 231
346 327 314 307 301 303 305 300 289 282 277 273 268 255 233 229 239 236 228 218 214 214 209 207 210 214 219 220 217 219 219 219 221 224 226 226 224 224 224 222 223 230
4 353 336 322 310 308 312 310 299 286 279 275 271 251 224 230 243 240 233 222 215 215 208 204 206 207 214 219 216 216 217 217 221 223 224 226 224 224 225 223 222 225
8 5 358 343 326 318 319 322 313 296 291 287 282 261 222 226 243 246 242 233 226 223 214 209 207 202 209 217 217 219 219 218 222 225 226 225 222 222 224 223 221 223
7 6 3 356 343 327 320 327 329 312 311 317 309 298 262 249 265 269 258 250 246 235 222 219 210 198 205 216 219 223 224 220 220 223 225 226 223 222 222 220 221 224
8 7 4 3 359 346 327 325 330 321 320 330 313 300 284 270 273 279 275 269 262 247 232 225 212 203 210 217 218 224 228 225 224 222 221 224 226 225 223 222 224 227
9 8 7 7 9 7 352 334 328 318 312 321 316 285 274 270 272 275 281 282 268 252 244 236 223 217 220 218 217 222 225 227 230 228 224 225 227 225 225 225 226 229
10 10 11 11 13 17 14 2 349 334 314 307 307 280 263 264 265 262 267 272 265 252 250 247 236 225 216 214 219 224 225 225 229 230 229 232 232 230 230 229 228 228
12 13 15 15 17 20 23 21 12 2 348 327 315 305 281 266 257 253 256 263 265 260 256 258 253 235 217 217 225 227 226 223 223 227 231 234 236 236 235 233 231 228
14 16 17 18 19 23 27 29 27 22 16 8 354 335 312 284 266 259 257 258 262 263 261 265 265 245 226 227 231 229 226 221 221 228 233 234 235 236 236 235 235 231
17 16 17 18 19 21 26 30 31 30 28 25 20 10 353 326 298 284 275 265 261 262 262 265 267 251 233 232 234 230 224 219 222 230 234 235 234 231 230 230 229 226
18 17 17 17 18 19 24 27 29 29 30 30 28 25 20 9 346 321 303 285 273 266 258 256 260 257 244 235 232 230 226 222 225 233 238 239 234 227 222 219 215 214
20 19 17 17 17 18 21 23 25 25 26 27 27 25 24 20 14 4 346 321 300 281 262 255 256 254 246 236 230 230 229 228 230 236 240 237 231 225 220 216 215 213
19 18 17 17 17 17 17 19 20 21 21 23 23 24 23 21 19 15 8 359 350 331 295 275 265 254 244 238 233 232 234 236 236 238 241 237 232 231 229 227 225 221
19 18 18 18 17 17 16 17 18 18 19 20 20 22 22 22 22 21 17 12 8 1 343 317 294 270 251 242 237 234 235 236 232 231 237 238 236 234 232 231 229 223
23 21 21 21 20 18 17 16 16 15 15 18 19 20 21 22 24 25 24 23 20 14 4 349 332 305 274 255 245 240 237 233 226 223 227 232 234 233 232 231 228 223